sat.trackr.live / text

‹ back to catalog

PRAETORIAN SDA_604

NORAD 65567 · 2025-203C

PAYLOAD ACTIVE UNKNOWN

§ Identity

Operator
Country
US
Launch date
2025-09-10
Launch site
AFWTR
Launch vehicle
Mass (kg)
RCS (m²)

Purposes: military

External: N2YO · Heavens-Above · Gunter

§ Orbital elements

Epoch: 2026-09-20T01:21:58.426272Z

Period
104.12 min
Inclination
81.3020°
Eccentricity
0.0004624
Mean motion
13.83056741 rev/d
Perigee alt
949.7 km
Apogee alt
956.5 km
Semi-major
7,331.2 km
B*
3.5858e-5
RAAN
283.4349°
Arg perigee
311.6659°
Mean anomaly
48.4100°
Rev number
5,179

§ Raw data

PRAETORIAN SDA_6041 65567U 25203C   26263.05692623  .00000051  00000+0  35858-4 0  99912 65567  81.3020 283.4349 0004624 311.6659  48.4100 13.83056741 51792

JSON: /api/v1/satellites/65567 · /tle

For live sub-satellite position, see the globe view (requires WebGL).

§ Visibility from observer

Set your observer location to see the next 7 days of passes ≥ 10°. The values pass through the URL so the page stays shareable.

No JS? Fill the form by hand. The geolocation button needs JavaScript.